Location: North Runcton
(52.7000°N, 0.4333°E)
Time: 18:32:04
(UTC+00:00)

Daily predictions for brighter satellites

Satellite Brightness Start Highest point End
(mag) Time Altitude Azimuth Time Altitude Azimuth Time Altitude Azimuth
Cosmos 158 Rocket 4.4 20:34:07 10° S 20:39:09 45° ESE 20:44:16 10° NE
USA 245 4.0 20:36:08 10° SSE 20:40:21 64° ENE 20:45:37 10° N
Cosmos 2058 Rocket 3.1 20:40:01 10° S 20:44:26 66° E 20:48:52 10° NNE
Geosat 4.2 20:41:19 10° NNE 20:46:22 82° NW 20:51:22 10° SW
Helios 1A 2.9 20:43:19 10° NNE 20:47:24 82° ESE 20:51:25 10° SSW
Cosmos 1980 Rocket 2.8 20:46:20 10° NNW 20:51:47 48° NE 20:57:11 10° SE
PSLV R/B 3.8 20:49:49 10° SE 20:52:55 46° ENE 20:56:04 10° N
Helios 1B rocket 4.2 20:51:50 10° SSW 20:54:53 25° W 20:57:58 10° NW
ATLAS CENTAUR R/B 1.3 20:51:39 10° SSW 20:55:13 48° SE 20:58:56 10° NE
Terra 2.1 20:51:35 10° S 20:56:14 67° WSW 21:00:57 10° NNW
NOSS 7 (H) 4.0 20:53:43 10° NW 20:56:37 86° SW 20:59:36 11° SE
USA 234 3.5 20:51:08 10° ENE 20:57:26 49° SE 21:03:44 10° SSW
Cosmos 1315 Rocket 4.2 20:55:14 10° SE 20:58:10 21° E 21:01:06 10° NE
SAR-Lupe-2 3.8 20:58:26 10° S 21:01:59 70° WSW 21:05:34 10° NNW
SL-16 R/B 4.0 20:57:51 10° NNW 21:02:22 23° NE 21:06:50 10° E
Meteor 2-2 Rocket 4.4 21:00:06 10° S 21:05:56 65° E 21:11:54 10° NNE
BlueWalker 3 2.2 21:03:35 10° W 21:07:06 47° SSW 21:10:12 13° SE
Cosmos 1125 Rocket 3.7 21:03:23 10° NNW 21:08:41 73° WSW 21:13:57 10° SSE
Meteor 2-10 4.5 21:03:10 10° N 21:08:48 57° ENE 21:13:58 12° SSE
Cosmos 1346 Rocket 3.0 21:06:48 10° NNW 21:10:29 61° W 21:14:07 10° S
Cosmos 2322 Rocket 4.3 21:06:57 10° NNW 21:11:03 20° NNE 21:15:08 10° ENE
Cosmos 1400 Rocket 3.5 21:08:16 10° SSW 21:11:52 51° WNW 21:15:28 10° N
Cosmos 2366 rocket 4.1 21:08:34 10° N 21:14:58 73° E 21:21:08 11° SSE
SL-24 DEB 4.5 21:14:17 12° SSE 21:18:22 54° E 21:22:49 10° N
IRS-1C Rocket 4.3 21:15:50 10° S 21:21:05 71° WSW 21:26:23 10° NNW
Cosmos 44 3.6 21:16:45 10° NW 21:21:10 53° SW 21:25:13 13° SSE
Ariane Rocket 3.0 21:16:59 11° SSE 21:21:57 89° WSW 21:27:04 10° NNW
CZ-4C R/B 4.3 21:17:10 10° WNW 21:23:22 31° WSW 21:30:34 10° S
Cosmos 2298 Rocket 4.1 21:18:02 10° NNW 21:23:23 72° ENE 21:27:57 14° SE
SL-8 Rocket 4.0 21:17:22 10° N 21:23:35 89° E 21:29:41 10° S
Cosmos 1697 Rocket 3.1 21:18:28 10° NW 21:24:03 61° WSW 21:29:17 12° SSE
Lacrosse 5 rocket 2.2 21:21:08 10° WNW 21:24:14 29° SW 21:26:34 14° SSE
Cosmos 1238 Rocket 3.3 21:22:12 14° SSE 21:24:48 34° E 21:27:49 10° NNE
Cosmos 1570 Rocket 4.0 21:22:06 10° S 21:27:16 63° ESE 21:32:31 10° NNE
ARIANE 5 R/B 4.5 21:24:17 10° ESE 21:27:24 20° ENE 21:30:32 10° NNE
CENTAUR R/B 4.1 21:22:58 10° NW 21:30:00 44° NNE 21:38:20 10° E
Cosmos 2360 Rocket 4.2 21:26:40 10° NNW 21:30:54 21° NNE 21:35:08 10° E
ATLAS 3B R/B 4.4 21:30:06 12° SE 21:33:25 17° ESE 21:37:54 10° ENE
Cosmos-2242 3.5 21:29:34 10° SSW 21:33:47 61° WNW 21:38:03 10° N
Cosmos 1536 3.2 21:31:15 10° N 21:34:57 46° ENE 21:37:32 18° SE
Cosmos 2344 4.2 21:28:05 10° WSW 21:35:19 58° NNW 21:42:51 10° NE
Cosmos 2369 4.0 21:31:08 10° NNW 21:36:47 63° NE 21:41:29 15° SE
Cosmos 1867 4.1 21:31:44 10° NW 21:37:01 52° WSW 21:41:23 15° SSE
Cosmos 405 Rocket 4.2 21:36:55 10° NNE 21:39:38 21° ENE 21:41:39 13° ESE
Cosmos 2150 Rocket 4.1 21:34:16 10° NNW 21:39:41 87° WSW 21:44:04 16° SSE
SeaSat 1 2.4 21:36:40 16° SE 21:40:40 86° ENE 21:45:37 10° NNW
Cosmos 2221 2.7 21:37:30 15° SSE 21:40:42 50° E 21:44:45 10° NNE
Okean O Rocket 4.1 21:38:19 10° SW 21:41:15 17° W 21:44:10 10° NW
Cosmos 2341 Rocket 4.3 21:38:58 10° NNW 21:45:11 66° W 21:51:18 10° S
Okean 1 3.3 21:42:38 17° SSE 21:45:12 52° E 21:48:48 10° NNE
Cosmos 2082 Rocket 2.9 21:42:05 15° SSE 21:45:58 33° ESE 21:50:56 10° NE
SPOT 3 Rocket 4.1 21:43:34 11° S 21:48:28 53° W 21:53:30 10° NNW
Cosmos 1674 2.9 21:48:35 20° E 21:48:37 20° E 21:50:22 10° NE
ISS -3.0 21:51:38 10° W 21:54:47 37° SSW 21:56:12 24° SSE
Cosmos 773 Rocket 4.0 21:51:32 10° S 21:56:36 63° ESE 22:01:40 10° NNE
COBE Rocket 4.5 21:52:41 10° NNE 21:57:34 44° E 22:00:56 19° SSE
Cosmos 1766 Rocket 3.7 21:55:02 10° N 21:59:24 61° ENE 22:02:12 21° SSE
Cosmos 2084 Rocket 3.3 21:55:45 10° SW 21:59:58 65° SE 22:04:10 10° NE
Cosmos 220 Rocket 4.0 21:57:20 17° S 22:00:15 52° ESE 22:04:14 10° NNE
COSMOS 2406 4.2 21:59:10 19° SSE 22:02:09 29° ESE 22:06:59 10° NE
ARIANE 6 FM1 Upper Stage 3.3 21:58:20 10° WSW 22:02:18 56° NW 22:06:19 10° NE
Cosmos 1356 Rocket 4.0 22:04:31 10° SSW 22:08:34 57° WNW 22:12:37 10° N
USA 59 Rocket 1.1 22:10:24 16° ESE 22:10:24 16° ESE 22:11:36 10° E
Cosmos 2333 Rocket 3.5 22:05:09 10° NNW 22:10:25 35° NE 22:15:38 10° ESE
NOSS 3-1 (C) 3.1 22:08:44 10° SW 22:13:39 85° NW 22:19:49 10° NE
Cosmos 1833 Rocket 3.5 22:08:24 10° SW 22:13:56 54° NW 22:19:29 10° NNE
MetOp-A 4.4 22:10:43 20° SE 22:14:11 55° ENE 22:19:15 10° N
Meteor 2-9 Rocket 4.2 22:14:31 10° NNW 22:20:10 89° ENE 22:24:06 21° SSE
Cosmos 1821 Rocket 4.2 22:14:16 10° NNW 22:20:20 66° W 22:25:07 17° S
PKM 3.4 22:18:55 10° SW 22:21:40 62° SSE 22:25:49 10° ENE
ALOS 2 3.9 22:19:44 16° ESE 22:22:31 32° ENE 22:26:25 10° N
Cosmos 1805 3.5 22:19:10 10° NNW 22:22:34 51° W 22:24:24 23° SSW
Cosmos 2219 Rocket 4.0 22:21:22 10° NNW 22:26:05 26° NE 22:30:47 10° E
Meteor 1-19 Rocket 4.4 22:25:46 20° S 22:30:02 68° E 22:36:01 10° NNE
ATLAS CENTAUR R/B 3.1 22:28:05 10° W 22:31:31 32° NNW 22:35:02 10° NNE
Cosmos 1315 Rocket 3.8 22:30:06 11° SW 22:33:42 42° WNW 22:37:26 10° N
Meteor 1-27 Rocket 4.0 22:30:55 23° SSE 22:34:15 54° E 22:39:39 10° NNE
Cosmos 1980 Rocket 3.1 22:30:33 10° NW 22:35:41 38° WSW 22:39:12 19° SSW
NOSS 2-1 (D) 3.7 22:36:14 29° ESE 22:36:14 29° ESE 22:38:43 10° ENE
Sich 1 3.7 22:32:12 10° N 22:36:16 41° ENE 22:38:23 24° SE
Helios 1B 4.5 22:33:23 10° NNE 22:37:42 80° ESE 22:40:12 24° S
Genesis I 2.4 22:36:53 10° NW 22:39:39 68° NE 22:40:24 41° ESE
USA 234 3.4 22:34:13 10° ENE 22:40:47 82° NNW 22:47:20 10° WSW
DELTA 2 DEB (DPAF) 4.4 22:37:47 10° N 22:41:40 56° WNW 22:44:39 16° SW
NOSS 3-1 (A) 3.0 22:38:22 10° SW 22:43:16 78° SE 22:49:20 10° NE
Meteor 2-15 4.5 22:37:16 10° N 22:43:24 76° ENE 22:47:14 24° SSE
BlueWalker 3 4.0 22:42:31 10° WSW 22:44:08 13° SW 22:44:08 13° SW
SL-16 R/B 2.3 22:41:40 10° NNW 22:47:23 78° ENE 22:51:04 23° SE
Cosmos 1975 2.5 22:45:04 10° N 22:48:47 83° E 22:50:13 35° SSE
Meteor 1-11 Rocket 4.0 22:44:30 10° NNW 22:49:57 61° W 22:53:25 22° S
Cosmos 783 Rocket 4.4 22:47:02 17° SSW 22:51:03 90° SSE 22:56:19 10° NNE
Cosmos 1500 Rocket 4.0 22:47:08 10° N 22:51:24 50° ENE 22:53:33 26° SE
Cosmos 1707 3.5 22:51:13 27° ESE 22:51:53 29° E 22:54:51 10° NNE
CZ-4C R/B 3.2 22:48:32 10° N 22:52:12 72° WNW 22:54:01 27° SSW
NOSS 2-1 (C) 3.1 22:55:39 42° SE 22:55:54 43° SE 22:58:47 10° ENE
Cosmos 2322 Rocket 2.6 22:50:40 10° NNW 22:56:18 60° NE 23:00:24 19° SE
Cosmos 2237 4.3 22:51:12 10° NW 22:56:52 69° WSW 23:00:06 26° SSE
Spot 4 3.8 22:56:44 28° SSE 22:59:15 83° ENE 23:04:03 10° NNW
Meteor 2-15 Rocket 4.5 22:54:09 10° N 23:00:18 75° ENE 23:04:01 25° SSE
Cosmos 1408 Rocket 3.6 22:56:00 10° N 23:00:22 71° ENE 23:02:20 31° SSE
ARIANE 5 R/B 2.7 23:01:14 30° S 23:03:17 67° WSW 23:07:40 10° NNW
Cosmos 1766 3.0 23:00:45 10° NNW 23:04:12 67° W 23:05:17 39° SSW
Cosmos 1842 Rocket 3.5 23:02:48 28° SSW 23:05:03 81° WNW 23:09:23 10° N
Cosmos 1908 2.7 23:02:18 10° N 23:05:34 81° ENE 23:06:26 46° SSE
Cosmos 1470 2.7 23:02:36 10° N 23:06:08 59° ENE 23:07:19 36° SE
Cosmos 1805 Rocket 3.7 23:03:06 10° N 23:07:33 67° ENE 23:09:35 31° SSE
Nadezhda 3 Rocket 4.4 23:06:38 16° SSW 23:11:34 60° WNW 23:17:47 10° N
Cosmos 2278 3.7 23:07:53 10° NW 23:13:33 74° WSW 23:16:39 28° SSE
Cosmos 405 Rocket 3.6 23:10:45 10° NNW 23:13:52 33° W 23:14:58 26° SW
GP-B 4.0 23:10:33 10° NNE 23:14:38 36° E 23:16:31 25° SE
Exosat Rocket 3.5 23:10:26 10° NNW 23:15:35 89° NNE 23:18:24 27° SSE
Cosmos 2360 Rocket 2.4 23:10:19 10° NNW 23:15:57 68° NE 23:19:47 21° SE
Cosmos 1934 Rocket 4.2 23:09:58 10° NNW 23:16:08 63° W 23:20:02 24° SSW
SeaSat 1 4.3 23:16:18 14° SW 23:18:38 19° WSW 23:22:03 10° WNW
Cosmos 1674 4.3 23:18:16 10° W 23:19:04 12° WNW 23:20:00 10° NW
CZ-2C R/B 3.7 23:14:54 10° N 23:19:18 71° WNW 23:21:45 26° SSW
Meteor 2-8 Rocket 4.5 23:14:57 10° N 23:21:11 83° E 23:24:49 26° SSE
Cosmos 381 Rocket 4.5 23:17:17 22° SSW 23:21:38 84° ESE 23:28:03 10° NNE
CENTAUR R/B 3.3 23:13:46 10° NW 23:21:43 81° NE 23:31:01 10° SE
ATLAS 3B R/B 3.0 23:17:16 20° SSW 23:22:41 61° SE 23:30:24 10° NE
KORONAS-FOTON 3.4 23:22:30 44° S 23:23:32 89° E 23:27:02 10° N
USA 229 DEB 4.0 23:20:46 27° S 23:23:38 43° ESE 23:29:55 10° NE
USA 229 4.0 23:20:54 27° S 23:23:44 43° ESE 23:29:59 10° NE
ASTEX 1 4.2 23:19:06 10° NNE 23:23:46 40° E 23:26:06 25° SE
Spot 1 4.3 23:19:36 10° NNE 23:23:49 56° ESE 23:25:34 33° SSE
Cosmos 1743 Rocket 3.6 23:21:21 10° N 23:25:49 76° ENE 23:27:46 33° SSE
Cosmos 2082 Rocket 2.8 23:24:18 10° SW 23:29:48 55° NW 23:35:22 10° NNE
Cosmos 1605 Rocket 4.0 23:25:17 10° NNW 23:31:39 78° W 23:35:18 27° S
Landsat 5 3.7 23:29:50 10° N 23:33:58 66° WNW 23:36:07 28° SW
Cosmos 1842 2.9 23:36:29 45° SSW 23:37:28 82° WNW 23:40:57 10° N
Cosmos 1420 Rocket 4.0 23:35:09 10° NNW 23:40:30 87° ENE 23:43:26 27° SSE
USA-17 4.1 23:40:08 10° NW 23:43:13 86° NE 23:44:06 44° SE
COSMOS 2406 3.6 23:41:09 14° SW 23:46:04 63° NW 23:51:46 10° NNE
Cosmos 1455 3.3 23:43:58 10° NNE 23:46:16 22° ENE 23:47:02 20° E
Cosmos 2237 Rocket 4.5 23:41:58 10° NNW 23:46:21 22° NNE 23:50:44 10° E
Cosmos 1300 2.1 23:46:39 10° N 23:49:50 79° ENE 23:50:26 55° SSE
